This demonstration page uses our WeatherBlox Daily Observations layout. Learn more.

Left ArrowRight Arrow

38.89511, -77.03637

Hourly Observations for April 15, 2021

Temp ( °F °C ) Dew Point ( °F °C ) Humidity (%) Winds ( mph kmh ) Pressure ( in mb ) Visibility ( mi km ) Precip ( " mm )
12:52 am 00:52 Cloudy 56 13.3 53 11.7 90 90 SSW 5 7 29.86 1011 10 16 0.00 0.00
1:20 am 01:20 Cloudy with Light Rain 56 13.3 52 11.1 87 87 S 6 9 29.86 1011 10 16 0.00 0.00
1:52 am 01:52 Cloudy 56 13.3 52 11.1 87 87 SSW 6 9 29.84 1011 10 16 0.00 0.00
2:02 am 02:02 Cloudy with Light Rain 55 12.8 52 11.1 90 90 SSW 6 9 29.84 1011 10 16 0.00 0.00
2:52 am 02:52 Cloudy 55 12.8 51 10.6 87 87 SW 5 7 29.82 1010 10 16 0.00 0.00
3:09 am 03:09 Cloudy 55 12.8 52 11.1 90 90 WSW 3 6 29.82 1010 10 16 0.00 0.00
3:52 am 03:52 Cloudy 55 12.8 51 10.6 87 87 SW 5 7 29.81 1010 10 16 0.00 0.00
4:00 am 04:00 Cloudy 55 12.8 51 10.6 87 87 SW 5 7 29.82 1010 10 16 0.00 0.00
4:33 am 04:33 Cloudy 55 12.8 52 11.1 90 90 Calm 29.80 1009 10 16 0.00 0.00
4:52 am 04:52 Cloudy 55 12.8 51 10.6 87 87 Calm 29.80 1009 10 16 0.00 0.00
5:15 am 05:15 Cloudy 55 12.8 52 11.1 90 90 Calm 29.78 1008 10 16 0.00 0.00
5:52 am 05:52 Cloudy 55 12.8 51 10.6 87 87 Calm 29.77 1008 10 16 0.00 0.00
6:52 am 06:52 Mostly Cloudy 56 13.3 52 11.1 87 87 WSW 5 7 29.78 1009 9 14 0.00 0.00
7:52 am 07:52 Mostly Cloudy 57 13.9 51 10.6 81 81 W 8 13 29.80 1009 10 16 0.00 0.00
8:52 am 08:52 Mostly Cloudy 58 14.4 48 8.9 70 70 W 7 11 29.80 1009 10 16 0.00 0.00
9:52 am 09:52 Mostly Cloudy 62 16.7 48 8.9 60 60 NNW 13 20 29.78 1009 10 16 0.00 0.00
10:52 am 10:52 Mostly Cloudy 64 17.8 46 7.8 52 52 NNW 15 24 29.76 1008 10 16 0.00 0.00
11:52 am 11:52 Mostly Cloudy 62 16.7 42 5.6 48 48 NNW 13 20 29.74 1007 10 16 0.00 0.00
12:52 pm 12:52 Mostly Cloudy 64 17.8 43 6.1 46 46 WNW 10 17 29.72 1007 10 16 0.00 0.00
1:52 pm 13:52 Mostly Cloudy 63 17.2 40 4.4 43 43 NW 17 28 29.72 1006 10 16 0.00 0.00
2:52 pm 14:52 Mostly Cloudy 62 16.7 36 2.2 38 38 NW 18 30 29.70 1006 10 16 0.00 0.00
3:52 pm 15:52 Partly Cloudy 65 18.3 40 4.4 40 40 NNW 20 31 29.69 1005 10 16 0.00 0.00
4:52 pm 16:52 Partly Cloudy 64 17.8 36 2.2 35 35 NW 16 26 29.69 1006 10 16 0.00 0.00
5:52 pm 17:52 Partly Cloudy 61 16.1 35 1.7 38 38 WNW 15 24 29.71 1006 10 16 0.00 0.00
6:52 pm 18:52 Mostly Cloudy 57 13.9 33 0.6 41 41 NW 16 26 29.75 1008 10 16 0.00 0.00
7:52 pm 19:52 Mostly Cloudy 55 12.8 32 0 42 42 NNW 21 33 29.77 1008 10 16 0.00 0.00
8:52 pm 20:52 Partly Cloudy 53 11.7 29 -1.7 40 40 NW 20 31 29.80 1009 10 16 0.00 0.00
9:52 pm 21:52 Mostly Clear 51 10.6 29 -1.7 43 43 WNW 13 20 29.81 1010 10 16 0.00 0.00
10:07 pm 22:07 Mostly Clear 50 10 29 -1.7 44 44 NW 13 20 29.82 1010 10 16 0.00 0.00
10:52 pm 22:52 Mostly Clear 50 10 29 -1.7 44 44 NW 10 17 29.82 1010 10 16 0.00 0.00
11:52 pm 23:52 Clear 49 9.4 28 -2.2 44 44 NW 8 13 29.83 1010 10 16 0.00 0.00

Powered by AerisWeather